DLH7750 EDDN-EDDH

Flight info

Callsign DLH7750
Flight time 0h 53m
Altitude 30000
Route ERETO1G/28 ERETO DCT LONLI M726 LASTO M852 LARET/N0405F320 M852 HLZ Z990 DIRBO/N0419F230 T902 RARUP RARUP3P
Aircraft B463/M-SDFGIRWY/LB1

Departure

Time 2026-05-04 18:45
Airport Nuremberg Airport (EDDN)

Arrival

Time 2026-05-04 19:38
Airport Hamburg Helmut Schmidt Airport (EDDH)
Time Latitude Longitude Altitude Speed Heading
2026-05-04 18:17 49.49542 11.07516 1026 ft 0 kts 188°
2026-05-04 18:18 49.49535 11.07585 1026 ft 0 kts 188°
2026-05-04 18:31 49.49542 11.07586 1026 ft 4 kts 188°
2026-05-04 18:31 49.49566 11.07592 1025 ft 1 kts 188°
2026-05-04 18:31 49.49590 11.07592 1025 ft 4 kts 161°
2026-05-04 18:32 49.49606 11.07567 1024 ft 3 kts 100°
2026-05-04 18:32 49.49609 11.07533 1025 ft 1 kts 98°
2026-05-04 18:32 49.49609 11.07532 1025 ft 0 kts 98°
2026-05-04 18:35 49.49609 11.07534 1025 ft 1 kts 98°
2026-05-04 18:35 49.49605 11.07573 1024 ft 2 kts 97°
2026-05-04 18:36 49.49603 11.07597 1025 ft 3 kts 98°
2026-05-04 18:36 49.49597 11.07652 1026 ft 8 kts 99°
2026-05-04 18:36 49.49592 11.07744 1025 ft 11 kts 90°
2026-05-04 18:36 49.49575 11.07874 1027 ft 13 kts 98°
2026-05-04 18:37 49.49562 11.08011 1027 ft 0 kts 98°
2026-05-04 18:37 49.49559 11.08039 1027 ft 8 kts 97°
2026-05-04 18:37 49.49544 11.08199 1025 ft 21 kts 99°
2026-05-04 18:37 49.49577 11.08353 1031 ft 16 kts
2026-05-04 18:38 49.49607 11.08516 1035 ft 23 kts 98°
2026-05-04 18:38 49.49577 11.08818 1037 ft 34 kts 98°
2026-05-04 18:38 49.49538 11.09218 1043 ft 30 kts 99°
2026-05-04 18:38 49.49530 11.09300 1044 ft 0 kts 96°
2026-05-04 18:39 49.49530 11.09312 1044 ft 3 kts 92°
2026-05-04 18:39 49.49530 11.09332 1045 ft 0 kts 86°
2026-05-04 18:39 49.49530 11.09333 1045 ft 1 kts 85°
2026-05-04 18:39 49.49536 11.09366 1045 ft 11 kts 67°
2026-05-04 18:40 49.49593 11.09493 1049 ft 9 kts 53°
2026-05-04 18:40 49.49597 11.09501 1049 ft 0 kts 52°
2026-05-04 18:43 49.49603 11.09511 1050 ft 4 kts 51°
2026-05-04 18:43 49.49649 11.09568 1052 ft 18 kts 18°
2026-05-04 18:44 49.49702 11.09506 1051 ft 0 kts 280°
2026-05-04 18:44 49.49724 11.09289 1048 ft 55 kts 278°
2026-05-04 18:44 49.49816 11.08348 1034 ft 121 kts 278°
2026-05-04 18:45 49.49962 11.06844 1270 ft 153 kts 277°
2026-05-04 18:45 49.50101 11.05228 1987 ft 152 kts 277°
2026-05-04 18:45 49.50248 11.03604 2681 ft 155 kts 278°
2026-05-04 18:45 49.50408 11.01937 3255 ft 169 kts 278°
2026-05-04 18:46 49.50610 10.99962 3663 ft 202 kts 278°
2026-05-04 18:46 49.50831 10.97746 4316 ft 220 kts 278°
2026-05-04 18:46 49.51211 10.95424 5180 ft 230 kts 299°
2026-05-04 18:46 49.52392 10.93740 6061 ft 241 kts 334°
2026-05-04 18:47 49.54044 10.93017 6915 ft 252 kts 347°
2026-05-04 18:47 49.55821 10.92626 7253 ft 268 kts 353°
2026-05-04 18:47 49.57757 10.92496 7167 ft 288 kts 357°
2026-05-04 18:47 49.59793 10.92498 7129 ft 295 kts 359°
2026-05-04 18:48 49.61839 10.92580 7103 ft 290 kts 360°
2026-05-04 18:48 49.63812 10.92695 7076 ft 278 kts
2026-05-04 18:48 49.65711 10.92802 7059 ft 269 kts 360°
2026-05-04 18:48 49.67557 10.92897 7055 ft 262 kts 360°
2026-05-04 18:49 49.69359 10.93016 7188 ft 256 kts
2026-05-04 18:49 49.70976 10.94041 7774 ft 254 kts 34°
2026-05-04 18:49 49.72414 10.95746 8410 ft 268 kts 37°
2026-05-04 18:49 49.73872 10.97577 9078 ft 279 kts 38°
2026-05-04 18:50 49.75363 10.99557 9809 ft 287 kts 39°
2026-05-04 18:50 49.77043 11.01259 10458 ft 294 kts 17°
2026-05-04 18:50 49.79089 11.01680 10991 ft 303 kts 357°
2026-05-04 18:50 49.81231 11.01608 11555 ft 313 kts 358°
2026-05-04 18:51 49.83433 11.01633 12143 ft 319 kts 359°
2026-05-04 18:51 49.85670 11.01747 12739 ft 324 kts
2026-05-04 18:51 49.87931 11.01964 13336 ft 327 kts
2026-05-04 18:51 49.90204 11.02281 13933 ft 329 kts
2026-05-04 18:52 49.92484 11.02671 14523 ft 330 kts
2026-05-04 18:52 49.94767 11.03102 15107 ft 331 kts
2026-05-04 18:52 49.97054 11.03580 15609 ft 333 kts
2026-05-04 18:52 49.99367 11.04074 16010 ft 338 kts
2026-05-04 18:53 50.01671 11.04576 16414 ft 340 kts
2026-05-04 18:53 50.04025 11.05071 16833 ft 342 kts
2026-05-04 18:53 50.06395 11.05541 17249 ft 344 kts
2026-05-04 18:53 50.08770 11.06031 17663 ft 345 kts
2026-05-04 18:54 50.11149 11.06542 18071 ft 346 kts
2026-05-04 18:54 50.13535 11.07029 18483 ft 346 kts
2026-05-04 18:54 50.15191 11.07363 18756 ft 346 kts
2026-05-04 18:54 50.17581 11.07873 19155 ft 347 kts
2026-05-04 18:55 50.19975 11.08367 19545 ft 347 kts
2026-05-04 18:55 50.24755 11.09361 20300 ft 347 kts
2026-05-04 18:55 50.27117 11.09862 20645 ft 347 kts
2026-05-04 18:56 50.29509 11.10340 21000 ft 347 kts
2026-05-04 18:56 50.31900 11.10846 21349 ft 347 kts
2026-05-04 18:56 50.34288 11.11359 21686 ft 346 kts
2026-05-04 18:56 50.36678 11.11841 22021 ft 346 kts
2026-05-04 18:57 50.39067 11.12340 22348 ft 346 kts
2026-05-04 18:57 50.41454 11.12857 22672 ft 346 kts
2026-05-04 18:57 50.43841 11.13355 22979 ft 346 kts
2026-05-04 18:57 50.46230 11.13835 23276 ft 346 kts
2026-05-04 18:58 50.48617 11.14341 23566 ft 346 kts
2026-05-04 18:58 50.51002 11.14858 23850 ft 346 kts
2026-05-04 18:58 50.53392 11.15370 24127 ft 346 kts
2026-05-04 18:58 50.55780 11.15851 24397 ft 346 kts
2026-05-04 18:59 50.58163 11.16351 24652 ft 346 kts
2026-05-04 18:59 50.60554 11.16640 24882 ft 344 kts 353°
2026-05-04 18:59 50.62902 11.16024 25131 ft 342 kts 346°
2026-05-04 18:59 50.65222 11.15241 25383 ft 341 kts 346°
2026-05-04 19:00 50.67516 11.14485 25617 ft 341 kts 347°
2026-05-04 19:00 50.69089 11.13991 25784 ft 341 kts 347°
2026-05-04 19:00 50.72182 11.13089 26091 ft 341 kts 348°
2026-05-04 19:00 50.74525 11.12460 26314 ft 342 kts 349°
2026-05-04 19:01 50.76872 11.11863 26528 ft 342 kts 349°
2026-05-04 19:01 50.79223 11.11305 26738 ft 342 kts 350°
2026-05-04 19:01 50.81578 11.10758 26940 ft 342 kts 350°
2026-05-04 19:01 50.83931 11.10203 27143 ft 342 kts 349°
2026-05-04 19:02 50.86282 11.09621 27340 ft 342 kts 349°
2026-05-04 19:02 50.88636 11.09045 27534 ft 342 kts 350°
2026-05-04 19:02 50.90990 11.08491 27716 ft 342 kts 349°
2026-05-04 19:02 50.93346 11.07909 27915 ft 342 kts 349°
2026-05-04 19:03 50.95667 11.07339 28091 ft 343 kts 350°
2026-05-04 19:03 50.98026 11.06782 28282 ft 343 kts 349°
2026-05-04 19:03 51.00379 11.06201 28441 ft 343 kts 349°
2026-05-04 19:03 51.02738 11.05619 28613 ft 343 kts 350°
2026-05-04 19:04 51.05097 11.05058 28774 ft 343 kts 349°
2026-05-04 19:04 51.07454 11.04472 28935 ft 343 kts 349°
2026-05-04 19:04 51.09812 11.03891 29089 ft 343 kts 350°
2026-05-04 19:04 51.12172 11.03330 29241 ft 343 kts 349°
2026-05-04 19:05 51.14531 11.02742 29388 ft 343 kts 349°
2026-05-04 19:05 51.16891 11.02156 29532 ft 343 kts 349°
2026-05-04 19:05 51.19257 11.01592 29672 ft 344 kts 349°
2026-05-04 19:05 51.21621 11.01004 29800 ft 344 kts 349°
2026-05-04 19:06 51.23986 11.00412 29916 ft 345 kts 349°
2026-05-04 19:06 51.26371 10.99837 29964 ft 348 kts 350°
2026-05-04 19:06 51.31174 10.98647 30001 ft 356 kts 349°
2026-05-04 19:07 51.36129 10.97437 30012 ft 365 kts 349°
2026-05-04 19:07 51.41205 10.96193 30015 ft 373 kts 349°
2026-05-04 19:08 51.46402 10.94894 30009 ft 382 kts 350°
2026-05-04 19:08 51.51712 10.93577 30017 ft 391 kts 349°
2026-05-04 19:09 51.57142 10.92243 30020 ft 399 kts 349°
2026-05-04 19:09 51.62685 10.90845 30016 ft 407 kts 350°
2026-05-04 19:10 51.68307 10.89533 30018 ft 415 kts 351°
2026-05-04 19:10 51.74099 10.88466 30006 ft 422 kts 353°
2026-05-04 19:11 51.79995 10.87517 30001 ft 429 kts 353°
2026-05-04 19:11 51.85940 10.86580 30008 ft 435 kts 353°
2026-05-04 19:12 51.95100 10.85313 30001 ft 442 kts 354°
2026-05-04 19:13 52.01247 10.84418 30001 ft 441 kts 354°
2026-05-04 19:13 52.04237 10.84013 29988 ft 426 kts 353°
2026-05-04 19:13 52.07120 10.83591 29981 ft 416 kts 353°
2026-05-04 19:14 52.12827 10.82766 29981 ft 409 kts 354°
2026-05-04 19:14 52.18466 10.82023 29987 ft 404 kts 353°
2026-05-04 19:15 52.24031 10.81223 29989 ft 399 kts 354°
2026-05-04 19:15 52.29520 10.80475 29990 ft 393 kts 353°
2026-05-04 19:16 52.34065 10.79849 29996 ft 397 kts 355°
2026-05-04 19:16 52.39662 10.79794 30009 ft 406 kts
2026-05-04 19:16 52.42502 10.80018 29877 ft 414 kts
2026-05-04 19:17 52.45437 10.80333 29215 ft 433 kts
2026-05-04 19:17 52.48501 10.80695 28512 ft 449 kts
2026-05-04 19:17 52.51662 10.81081 27845 ft 463 kts
2026-05-04 19:17 52.54837 10.81432 27223 ft 431 kts
2026-05-04 19:18 52.57721 10.81744 26516 ft 412 kts
2026-05-04 19:18 52.60573 10.82047 25796 ft 410 kts
2026-05-04 19:18 52.63375 10.82342 25105 ft 408 kts
2026-05-04 19:18 52.66192 10.82641 24425 ft 405 kts
2026-05-04 19:19 52.68996 10.82934 23745 ft 402 kts
2026-05-04 19:19 52.71790 10.83231 22915 ft 403 kts
2026-05-04 19:19 52.74590 10.83525 22103 ft 403 kts
2026-05-04 19:19 52.77385 10.83822 21307 ft 402 kts
2026-05-04 19:20 52.80174 10.84119 20524 ft 401 kts
2026-05-04 19:20 52.82952 10.84276 19748 ft 398 kts 357°
2026-05-04 19:20 52.85706 10.83999 18987 ft 395 kts 353°
2026-05-04 19:20 52.88427 10.83528 18236 ft 392 kts 352°
2026-05-04 19:21 52.91122 10.82964 17493 ft 388 kts 351°
2026-05-04 19:21 52.93690 10.82390 16777 ft 358 kts 351°
2026-05-04 19:21 52.96081 10.81879 16038 ft 336 kts 351°
2026-05-04 19:21 52.98341 10.81412 15293 ft 322 kts 351°
2026-05-04 19:22 53.00595 10.80948 14532 ft 331 kts 351°
2026-05-04 19:22 53.02903 10.80474 13812 ft 338 kts 351°
2026-05-04 19:22 53.05254 10.79987 13113 ft 342 kts 351°
2026-05-04 19:22 53.07594 10.79502 12440 ft 344 kts 351°
2026-05-04 19:23 53.09962 10.79011 11787 ft 337 kts 351°
2026-05-04 19:23 53.12206 10.78550 11341 ft 314 kts 351°
2026-05-04 19:23 53.14293 10.78098 11028 ft 291 kts 347°
2026-05-04 19:23 53.16117 10.77144 10992 ft 262 kts 336°
2026-05-04 19:24 53.17784 10.76004 10979 ft 268 kts 335°
2026-05-04 19:24 53.19600 10.74743 11009 ft 297 kts 335°
2026-05-04 19:24 53.21580 10.73390 11026 ft 317 kts 336°
2026-05-04 19:24 53.23676 10.72012 11032 ft 328 kts 337°
2026-05-04 19:25 53.25829 10.70653 11027 ft 334 kts 338°
2026-05-04 19:25 53.28032 10.69291 11022 ft 336 kts 339°
2026-05-04 19:25 53.30069 10.68088 10996 ft 297 kts 339°
2026-05-04 19:25 53.31960 10.66980 10976 ft 287 kts 338°
2026-05-04 19:26 53.33818 10.65869 10801 ft 283 kts 338°
2026-05-04 19:26 53.35672 10.64752 10232 ft 285 kts 338°
2026-05-04 19:26 53.37547 10.63614 9634 ft 288 kts 338°
2026-05-04 19:26 53.39438 10.62482 9054 ft 289 kts 339°
2026-05-04 19:27 53.41338 10.61362 8484 ft 289 kts 338°
2026-05-04 19:27 53.43211 10.60231 7923 ft 282 kts 338°
2026-05-04 19:27 53.45039 10.59126 7356 ft 277 kts 338°
2026-05-04 19:27 53.46843 10.58040 6800 ft 274 kts 338°
2026-05-04 19:28 53.48627 10.56957 6241 ft 272 kts 338°
2026-05-04 19:28 53.50403 10.55895 5683 ft 270 kts 339°
2026-05-04 19:28 53.52165 10.54849 5241 ft 267 kts 338°
2026-05-04 19:28 53.53922 10.53786 5026 ft 266 kts 338°
2026-05-04 19:29 53.55638 10.52751 4825 ft 257 kts 338°
2026-05-04 19:29 53.57276 10.51762 4301 ft 244 kts 337°
2026-05-04 19:29 53.58777 10.50492 3621 ft 240 kts 326°
2026-05-04 19:29 53.60166 10.49012 3086 ft 234 kts 325°
2026-05-04 19:30 53.61488 10.47586 2957 ft 214 kts 324°
2026-05-04 19:30 53.62708 10.46234 2960 ft 213 kts 324°
2026-05-04 19:30 53.63947 10.44845 2982 ft 214 kts 324°
2026-05-04 19:30 53.65190 10.43443 3000 ft 216 kts 324°
2026-05-04 19:31 53.66439 10.42026 3011 ft 217 kts 324°
2026-05-04 19:31 53.67696 10.40600 3017 ft 219 kts 324°
2026-05-04 19:31 53.68964 10.39156 3026 ft 222 kts 324°
2026-05-04 19:31 53.70253 10.37684 3034 ft 225 kts 324°
2026-05-04 19:32 53.71559 10.36196 3033 ft 228 kts 324°
2026-05-04 19:32 53.72885 10.34679 3036 ft 233 kts 324°
2026-05-04 19:32 53.74246 10.33120 3031 ft 239 kts 324°
2026-05-04 19:32 53.75629 10.31528 3030 ft 241 kts 323°
2026-05-04 19:33 53.76743 10.29516 3017 ft 233 kts 293°
2026-05-04 19:33 53.76932 10.26884 3030 ft 227 kts 257°
2026-05-04 19:33 53.76217 10.24618 3024 ft 222 kts 230°
2026-05-04 19:33 53.75189 10.22670 3022 ft 222 kts 230°
2026-05-04 19:34 53.74169 10.20738 3007 ft 218 kts 229°
2026-05-04 19:34 53.73173 10.18927 2851 ft 201 kts 228°
2026-05-04 19:34 53.72256 10.17296 2667 ft 187 kts 229°
2026-05-04 19:34 53.71402 10.15734 2444 ft 174 kts 231°
2026-05-04 19:35 53.70640 10.14219 2204 ft 163 kts 232°
2026-05-04 19:35 53.69947 10.12782 1977 ft 154 kts 233°
2026-05-04 19:35 53.69290 10.11428 1786 ft 145 kts 233°
2026-05-04 19:35 53.68660 10.10148 1590 ft 140 kts 232°
2026-05-04 19:36 53.68050 10.08907 1418 ft 134 kts 233°
2026-05-04 19:36 53.67461 10.07724 1259 ft 130 kts 233°
2026-05-04 19:36 53.66896 10.06570 1073 ft 126 kts 232°
2026-05-04 19:36 53.66342 10.05446 893 ft 124 kts 232°
2026-05-04 19:37 53.65788 10.04334 727 ft 123 kts 233°
2026-05-04 19:37 53.65250 10.03247 575 ft 120 kts 231°
2026-05-04 19:37 53.64702 10.02183 421 ft 124 kts 231°
2026-05-04 19:37 53.64138 10.01049 244 ft 127 kts 231°
2026-05-04 19:38 53.63578 9.99929 80 ft 120 kts 231°
2026-05-04 19:38 53.63098 9.98949 52 ft 95 kts 230°
2026-05-04 19:38 53.62726 9.98209 53 ft 66 kts 230°
2026-05-04 19:38 53.62523 9.97807 50 ft 26 kts 217°
2026-05-04 19:39 53.62429 9.97894 51 ft 15 kts 83°
2026-05-04 19:39 53.62439 9.98018 51 ft 11 kts 83°
2026-05-04 19:39 53.62484 9.98149 51 ft 17 kts 49°
2026-05-04 19:39 53.62585 9.98339 51 ft 26 kts 50°
2026-05-04 19:40 53.62718 9.98613 51 ft 34 kts 50°
2026-05-04 19:40 53.62889 9.98956 51 ft 40 kts 50°
2026-05-04 19:40 53.63034 9.99252 51 ft 27 kts 51°
2026-05-04 19:40 53.63085 9.99371 51 ft 0 kts 55°
2026-05-04 19:42 53.63092 9.99389 51 ft 7 kts 55°
2026-05-04 19:43 53.63177 9.99582 50 ft 32 kts 50°
2026-05-04 19:43 53.63299 9.99804 50 ft 10 kts 49°
2026-05-04 19:43 53.63331 9.99867 50 ft 10 kts 47°
2026-05-04 19:43 53.63354 9.99906 51 ft 3 kts 49°
2026-05-04 19:44 53.63420 10.00053 51 ft 25 kts 56°
2026-05-04 19:44 53.63390 10.00189 51 ft 17 kts 159°
2026-05-04 19:44 53.63228 10.00210 51 ft 30 kts 176°
2026-05-04 19:44 53.63017 10.00176 50 ft 27 kts 216°
2026-05-04 19:45 53.62873 10.00057 51 ft 17 kts 157°
2026-05-04 19:45 53.62760 10.00159 51 ft 21 kts 153°
2026-05-04 19:45 53.62719 10.00254 51 ft 0 kts 54°
2026-05-04 19:45 53.62729 10.00281 48 ft 6 kts 61°
2026-05-04 19:46 53.62734 10.00296 50 ft 0 kts 62°